^^
Station Historical Data
 
Daily Summary for September 23, 2017 Units:  Metric    English   Both
« Previous Day
Next Day »
Daily Weekly Monthly Yearly Custom
  Current: High: Low: Average:
Temperature: 29.4 °C 29.6 °C 13.2 °C 18.8 °C
Dew Point: 20.9 °C 20.9 °C 12.1 °C 15.5 °C
Humidity: 60 % 100 % 58 % 83 %
Wind Speed: 1.6 km/h 4.8 km/h 0 km/h 0.2 km/h
Wind Gust: 19.3 km/h 19.3 km/h - -
Wind:WNW - - WNW
Pressure: 1014.1 hPa 1017.5 hPa 1014.1 hPa -
Precipitation: 0 mm      
Historical Graphs
 
 
Tabular Data for September 23, 2017
Time Temperature Dew Point Pressure Wind Wind Speed Wind Gust Humidity Rainfall Rate (Hourly) solar Conditions
00:04 14.8 °C 13.4 °C 1017.2 hPa Calm     91 % 0 mm WeatherDisplay:10.37 W/m2 FEW
00:09 14.8 °C 13.3 °C 1017.5 hPa Calm     91 % 0 mm WeatherDisplay:10.37 W/m2 FEW
00:14 14.7 °C 13.3 °C 1017.2 hPa Calm     91 % 0 mm WeatherDisplay:10.37 W/m2 FEW
00:19 14.7 °C 13.3 °C 1017.2 hPa Calm     91 % 0 mm WeatherDisplay:10.37 W/m2 FEW
00:24 14.7 °C 13.2 °C 1017.2 hPa Calm     91 % 0 mm WeatherDisplay:10.37 W/m2 FEW
00:29 14.6 °C 13.2 °C 1017.2 hPa Calm     91 % 0 mm WeatherDisplay:10.37 W/m2 FEW
00:34 14.6 °C 13.2 °C 1017.2 hPa Calm     91 % 0 mm WeatherDisplay:10.37 W/m2 FEW
00:39 14.6 °C 13.1 °C 1017.2 hPa Calm     91 % 0 mm WeatherDisplay:10.37 W/m2 FEW
00:49 14.5 °C 13.1 °C 1017.2 hPa Calm     91 % 0 mm WeatherDisplay:10.37 W/m2 FEW
00:54 14.4 °C 13 °C 1017.2 hPa Calm     91 % 0 mm WeatherDisplay:10.37 W/m2 FEW
00:59 14.4 °C 12.9 °C 1016.8 hPa Calm     91 % 0 mm WeatherDisplay:10.37 W/m2 FEW
01:04 14.4 °C 12.9 °C 1016.8 hPa Calm     91 % 0 mm WeatherDisplay:10.37 W/m2 FEW
01:09 14.3 °C 12.9 °C 1016.8 hPa Calm     91 % 0 mm WeatherDisplay:10.37 W/m2 FEW
01:14 14.3 °C 12.8 °C 1016.8 hPa Calm     91 % 0 mm WeatherDisplay:10.37 W/m2 FEW
01:19 14.2 °C 12.8 °C 1016.8 hPa Calm     91 % 0 mm WeatherDisplay:10.37 W/m2 FEW
01:24 14.2 °C 12.8 °C 1016.8 hPa Calm     91 % 0 mm WeatherDisplay:10.37 W/m2 FEW
01:29 14.2 °C 12.7 °C 1016.8 hPa Calm     91 % 0 mm WeatherDisplay:10.37 W/m2 FEW
01:34 14.1 °C 12.7 °C 1016.8 hPa Calm     91 % 0 mm WeatherDisplay:10.37 W/m2 FEW
01:39 14.1 °C 12.8 °C 1016.5 hPa Calm     92 % 0 mm WeatherDisplay:10.37 W/m2 FEW
01:44 14.1 °C 12.8 °C 1016.5 hPa Calm     92 % 0 mm WeatherDisplay:10.37 W/m2 FEW
01:49 14 °C 12.7 °C 1016.5 hPa Calm     92 % 0 mm WeatherDisplay:10.37 W/m2 FEW
01:54 13.9 °C 12.7 °C 1016.5 hPa Calm     92 % 0 mm WeatherDisplay:10.37 W/m2 FEW
02:04 13.9 °C 12.6 °C 1016.1 hPa Calm     92 % 0 mm WeatherDisplay:10.37 W/m2 FEW
02:09 13.8 °C 12.6 °C 1016.1 hPa Calm     92 % 0 mm WeatherDisplay:10.37 W/m2 FEW
02:14 13.8 °C 12.6 °C 1016.1 hPa Calm     92 % 0 mm WeatherDisplay:10.37 W/m2 FEW
02:19 13.8 °C 12.5 °C 1016.1 hPa Calm     92 % 0 mm WeatherDisplay:10.37 W/m2 FEW
02:24 13.7 °C 12.5 °C 1016.1 hPa Calm     92 % 0 mm WeatherDisplay:10.37 W/m2 FEW
02:29 13.7 °C 12.4 °C 1016.1 hPa Calm     92 % 0 mm WeatherDisplay:10.37 W/m2 FEW
02:34 13.7 °C 12.4 °C 1016.1 hPa Calm     92 % 0 mm WeatherDisplay:10.37 W/m2 FEW
02:39 13.7 °C 12.4 °C 1016.1 hPa Calm     92 % 0 mm WeatherDisplay:10.37 W/m2 FEW
02:44 13.6 °C 12.3 °C 1015.8 hPa Calm     92 % 0 mm WeatherDisplay:10.37 W/m2 FEW
02:49 13.6 °C 12.3 °C 1015.8 hPa Calm     92 % 0 mm WeatherDisplay:10.37 W/m2 FEW
02:59 13.5 °C 12.2 °C 1015.8 hPa Calm     92 % 0 mm WeatherDisplay:10.37 W/m2 FEW
03:04 13.4 °C 12.2 °C 1015.8 hPa Calm     92 % 0 mm WeatherDisplay:10.37 W/m2 FEW
03:09 13.4 °C 12.2 °C 1016.1 hPa Calm     92 % 0 mm WeatherDisplay:10.37 W/m2 FEW
03:14 13.4 °C 12.1 °C 1016.1 hPa Calm     92 % 0 mm WeatherDisplay:10.37 W/m2 FEW
03:19 13.4 °C 12.3 °C 1016.1 hPa Calm     93 % 0 mm WeatherDisplay:10.37 W/m2 FEW
03:29 13.4 °C 12.3 °C 1016.1 hPa Calm     93 % 0 mm WeatherDisplay:10.37 W/m2 FEW
03:34 13.4 °C 12.3 °C 1016.1 hPa Calm     93 % 0 mm WeatherDisplay:10.37 W/m2 FEW
03:39 13.3 °C 12.2 °C 1016.1 hPa Calm     93 % 0 mm WeatherDisplay:10.37 W/m2 FEW
03:44 13.3 °C 12.4 °C 1015.8 hPa Calm     94 % 0 mm WeatherDisplay:10.37 W/m2 FEW
03:49 13.4 °C 12.4 °C 1016.1 hPa Calm     94 % 0 mm WeatherDisplay:10.37 W/m2 FEW
03:59 13.4 °C 12.4 °C 1015.8 hPa Calm     94 % 0 mm WeatherDisplay:10.37 W/m2 FEW
04:04 13.4 °C 12.4 °C 1016.1 hPa Calm     94 % 0 mm WeatherDisplay:10.37 W/m2 FEW
04:09 13.4 °C 12.5 °C 1015.8 hPa Calm     94 % 0 mm WeatherDisplay:10.37 W/m2 FEW
04:14 13.4 °C 12.5 °C 1015.8 hPa Calm     94 % 0 mm WeatherDisplay:10.37 W/m2 FEW
04:19 13.4 °C 12.5 °C 1015.8 hPa Calm     94 % 0 mm WeatherDisplay:10.37 W/m2 FEW
04:29 13.5 °C 12.6 °C 1015.8 hPa Calm     94 % 0 mm WeatherDisplay:10.37 W/m2 FEW
04:34 13.5 °C 12.6 °C 1015.8 hPa Calm     94 % 0 mm WeatherDisplay:10.37 W/m2 FEW
04:39 13.4 °C 12.5 °C 1015.8 hPa Calm     94 % 0 mm WeatherDisplay:10.37 W/m2 FEW
04:49 13.4 °C 12.5 °C 1016.1 hPa Calm     94 % 0 mm WeatherDisplay:10.37 W/m2 FEW
04:54 13.4 °C 12.5 °C 1016.1 hPa Calm     94 % 0 mm WeatherDisplay:10.37 W/m2 FEW
04:59 13.4 °C 12.5 °C 1016.1 hPa Calm     94 % 0 mm WeatherDisplay:10.37 W/m2 FEW
05:04 13.4 °C 12.4 °C 1016.1 hPa Calm     94 % 0 mm WeatherDisplay:10.37 W/m2 FEW
05:09 13.4 °C 12.4 °C 1015.8 hPa Calm     94 % 0 mm WeatherDisplay:10.37 W/m2 FEW
05:14 13.4 °C 12.4 °C 1016.1 hPa Calm     94 % 0 mm WeatherDisplay:10.37 W/m2 FEW
05:19 13.3 °C 12.4 °C 1016.1 hPa Calm     94 % 0 mm WeatherDisplay:10.37 W/m2 FEW
05:24 13.3 °C 12.4 °C 1016.1 hPa Calm     94 % 0 mm WeatherDisplay:10.37 W/m2 FEW
05:29 13.3 °C 12.3 °C 1016.1 hPa Calm     94 % 0 mm WeatherDisplay:10.37 W/m2 FEW
05:34 13.3 °C 12.3 °C 1016.1 hPa Calm     94 % 0 mm WeatherDisplay:10.37 W/m2 FEW
05:39 13.3 °C 12.3 °C 1016.1 hPa Calm     94 % 0 mm WeatherDisplay:10.37 W/m2 FEW
05:44 13.3 °C 12.3 °C 1016.1 hPa Calm     94 % 0 mm WeatherDisplay:10.37 W/m2 FEW
05:49 13.3 °C 12.3 °C 1016.1 hPa Calm     94 % 0 mm WeatherDisplay:10.37 W/m2 FEW
05:54 13.3 °C 12.3 °C 1016.1 hPa Calm     94 % 0 mm WeatherDisplay:10.37 W/m2 FEW
05:59 13.3 °C 12.3 °C 1016.1 hPa Calm     94 % 0 mm WeatherDisplay:10.37 W/m2 FEW
06:04 13.3 °C 12.3 °C 1016.5 hPa Calm     94 % 0 mm WeatherDisplay:10.37 W/m2 FEW
06:09 13.3 °C 12.3 °C 1016.5 hPa Calm     94 % 0 mm WeatherDisplay:10.37 W/m2 FEW
06:14 13.3 °C 12.3 °C 1016.5 hPa Calm     94 % 0 mm WeatherDisplay:10.37 W/m2 FEW
06:19 13.2 °C 12.4 °C 1016.5 hPa Calm     95 % 0 mm WeatherDisplay:10.37 W/m2 FEW
06:24 13.2 °C 12.4 °C 1016.5 hPa Calm     95 % 0 mm WeatherDisplay:10.37 W/m2 FEW
06:29 13.2 °C 12.4 °C 1016.1 hPa Calm     95 % 0 mm WeatherDisplay:10.37 W/m2 FEW
06:34 13.2 °C 12.4 °C 1016.1 hPa Calm     95 % 0 mm WeatherDisplay:10.37 W/m2 FEW
06:39 13.2 °C 12.4 °C 1016.1 hPa Calm     95 % 0 mm WeatherDisplay:10.37 W/m2 FEW
06:44 13.2 °C 12.4 °C 1016.1 hPa Calm     95 % 0 mm WeatherDisplay:10.37 W/m2 FEW
06:49 13.2 °C 12.4 °C 1016.1 hPa Calm     95 % 0 mm WeatherDisplay:10.37 W/m2 FEW
06:54 13.2 °C 12.4 °C 1016.5 hPa Calm     95 % 0 mm WeatherDisplay:10.37 W/m2 FEW
06:59 13.2 °C 12.4 °C 1016.5 hPa Calm     95 % 0 mm WeatherDisplay:10.37 W/m2 FEW
07:04 13.2 °C 12.4 °C 1016.5 hPa Calm     95 % 0 mm WeatherDisplay:10.37 W/m2 FEW
07:09 13.3 °C 12.4 °C 1016.5 hPa Calm     95 % 0 mm WeatherDisplay:10.37 W/m2 FEW
07:14 13.3 °C 12.5 °C 1016.5 hPa Calm     95 % 0 mm WeatherDisplay:10.37 W/m2 OVC
07:19 13.3 °C 12.6 °C 1016.5 hPa Calm     95 % 0 mm WeatherDisplay:10.37 W/m2 OVC
07:24 13.4 °C 12.6 °C 1016.5 hPa Calm     95 % 0 mm WeatherDisplay:10.37 W/m2 OVC
07:29 13.4 °C 12.7 °C 1016.5 hPa Calm     95 % 0 mm WeatherDisplay:10.37 W/m2 OVC
07:39 13.6 °C 13 °C 1016.8 hPa Calm     96 % 0 mm WeatherDisplay:10.37 W/m2 OVC
07:44 13.7 °C 13.1 °C 1016.5 hPa Calm     96 % 0 mm WeatherDisplay:10.37 W/m2 OVC
07:49 13.8 °C 13.2 °C 1016.5 hPa Calm     96 % 0 mm WeatherDisplay:10.37 W/m2 OVC
07:54 13.9 °C 13.2 °C 1016.5 hPa Calm     96 % 0 mm WeatherDisplay:10.37 W/m2 OVC
07:59 14 °C 13.4 °C 1016.5 hPa Calm     96 % 0 mm WeatherDisplay:10.37 W/m2 OVC
08:04 14.2 °C 13.6 °C 1016.8 hPa Calm     96 % 0 mm WeatherDisplay:10.37 W/m2 OVC
08:09 14.3 °C 13.7 °C 1016.8 hPa Calm     96 % 0 mm WeatherDisplay:10.37 W/m2 OVC
08:14 14.4 °C 13.8 °C 1016.5 hPa Calm     96 % 0 mm WeatherDisplay:10.37 W/m2 BKN
08:19 14.6 °C 14 °C 1016.5 hPa Calm     96 % 0 mm WeatherDisplay:10.37 W/m2 BKN
08:29 14.9 °C 14.9 °C 1016.5 hPa Calm     100 % 0 mm WeatherDisplay:10.37 W/m2 BKN
08:34 15 °C 15 °C 1016.8 hPa Calm     100 % 0 mm WeatherDisplay:10.37 W/m2 BKN
08:39 15.2 °C 15.2 °C 1016.8 hPa Calm     100 % 0 mm WeatherDisplay:10.37 W/m2 BKN
08:49 15.6 °C 15.6 °C 1016.5 hPa Calm     100 % 0 mm WeatherDisplay:10.37 W/m2 BKN
08:54 15.8 °C 15.8 °C 1016.5 hPa Calm   6.4 km/h 100 % 0 mm WeatherDisplay:10.37 W/m2 BKN
08:59 15.9 °C 15.9 °C 1016.5 hPa Calm   4.8 km/h 100 % 0 mm WeatherDisplay:10.37 W/m2 BKN
09:04 16.2 °C 16.2 °C 1016.5 hPa Calm   1.6 km/h 100 % 0 mm WeatherDisplay:10.37 W/m2 BKN
09:09 16.4 °C 16.4 °C 1016.5 hPa Calm     100 % 0 mm WeatherDisplay:10.37 W/m2 BKN
09:14 16.6 °C 16.6 °C 1016.5 hPa West 1.6 km/h 4.8 km/h 100 % 0 mm WeatherDisplay:10.37 W/m2 BKN
09:19 16.8 °C 16.8 °C 1016.5 hPa Calm   3.2 km/h 100 % 0 mm WeatherDisplay:10.37 W/m2 BKN
09:24 17.1 °C 16.9 °C 1016.5 hPa Calm   4.8 km/h 99 % 0 mm WeatherDisplay:10.37 W/m2 BKN
09:29 17.4 °C 16.8 °C 1016.5 hPa West 1.6 km/h 6.4 km/h 96 % 0 mm WeatherDisplay:10.37 W/m2 BKN
09:39 18.2 °C 16.9 °C 1016.8 hPa Calm   3.2 km/h 92 % 0 mm WeatherDisplay:10.37 W/m2 BKN
09:44 18.8 °C 16.7 °C 1016.8 hPa Calm   8 km/h 88 % 0 mm WeatherDisplay:10.37 W/m2 BKN
09:49 19.3 °C 16.9 °C 1016.8 hPa Calm   11.3 km/h 86 % 0 mm WeatherDisplay:10.37 W/m2 BKN
09:59 20.4 °C 16.8 °C 1016.5 hPa Calm   8 km/h 80 % 0 mm WeatherDisplay:10.37 W/m2 BKN
10:04 20.9 °C 16.9 °C 1016.5 hPa Calm   4.8 km/h 78 % 0 mm WeatherDisplay:10.37 W/m2 BKN
10:09 21.3 °C 16.7 °C 1016.5 hPa Calm   6.4 km/h 75 % 0 mm WeatherDisplay:10.37 W/m2 BKN
10:14 21.8 °C 16.9 °C 1016.8 hPa Calm   3.2 km/h 74 % 0 mm WeatherDisplay:10.37 W/m2 BKN
10:19 22.2 °C 17.1 °C 1016.5 hPa Calm   1.6 km/h 73 % 0 mm WeatherDisplay:10.37 W/m2 BKN
10:24 22.6 °C 17.1 °C 1016.5 hPa NW 4.8 km/h 14.5 km/h 71 % 0 mm WeatherDisplay:10.37 W/m2 BKN
10:34 23.2 °C 17.4 °C 1016.8 hPa WNW 1.6 km/h 4.8 km/h 70 % 0 mm WeatherDisplay:10.37 W/m2 BKN
10:39 23.5 °C 17.5 °C 1016.8 hPa Calm   6.4 km/h 69 % 0 mm WeatherDisplay:10.37 W/m2 BKN
10:44 23.7 °C 17.7 °C 1016.5 hPa Calm   1.6 km/h 69 % 0 mm WeatherDisplay:10.37 W/m2 BKN
10:49 23.9 °C 17.7 °C 1016.5 hPa West 1.6 km/h 6.4 km/h 68 % 0 mm WeatherDisplay:10.37 W/m2 BKN
10:54 24.2 °C 17.9 °C 1016.5 hPa Calm   4.8 km/h 68 % 0 mm WeatherDisplay:10.37 W/m2 BKN
10:59 24.3 °C 18.3 °C 1016.5 hPa Calm     69 % 0 mm WeatherDisplay:10.37 W/m2 BKN
11:04 24.5 °C 18.7 °C 1016.5 hPa Calm   4.8 km/h 70 % 0 mm WeatherDisplay:10.37 W/m2 BKN
11:09 24.6 °C 18.6 °C 1016.5 hPa Calm   1.6 km/h 69 % 0 mm WeatherDisplay:10.37 W/m2 BKN
11:14 24.8 °C 18.4 °C 1016.1 hPa Calm   4.8 km/h 68 % 0 mm WeatherDisplay:10.37 W/m2 BKN
11:19 24.9 °C 18.6 °C 1016.1 hPa Calm   6.4 km/h 68 % 0 mm WeatherDisplay:10.37 W/m2 BKN
11:24 25 °C 18.4 °C 1016.1 hPa Calm   4.8 km/h 67 % 0 mm WeatherDisplay:10.37 W/m2 BKN
11:29 25.1 °C 18.8 °C 1016.5 hPa Calm   4.8 km/h 68 % 0 mm WeatherDisplay:10.37 W/m2 BKN
11:34 25.2 °C 18.4 °C 1016.5 hPa Calm   6.4 km/h 66 % 0 mm WeatherDisplay:10.37 W/m2 BKN
11:39 25.2 °C 18.4 °C 1016.1 hPa Calm   3.2 km/h 66 % 0 mm WeatherDisplay:10.37 W/m2 BKN
11:44 25.3 °C 19 °C 1016.1 hPa Calm   1.6 km/h 68 % 0 mm WeatherDisplay:10.37 W/m2 BKN
11:49 25.4 °C 18.6 °C 1016.1 hPa Calm   6.4 km/h 66 % 0 mm WeatherDisplay:10.37 W/m2 BKN
11:54 25.5 °C 18.7 °C 1016.1 hPa Calm   3.2 km/h 66 % 0 mm WeatherDisplay:10.37 W/m2 BKN
11:59 25.6 °C 18.7 °C 1016.1 hPa Calm     66 % 0 mm WeatherDisplay:10.37 W/m2 BKN
12:04 25.7 °C 18.6 °C 1016.1 hPa Calm   8 km/h 65 % 0 mm WeatherDisplay:10.37 W/m2 BKN
12:09 25.7 °C 18.7 °C 1016.1 hPa Calm   4.8 km/h 65 % 0 mm WeatherDisplay:10.37 W/m2 BKN
12:14 25.8 °C 18.8 °C 1016.1 hPa Calm   1.6 km/h 65 % 0 mm WeatherDisplay:10.37 W/m2 BKN
12:19 25.9 °C 19.3 °C 1016.1 hPa Calm     67 % 0 mm WeatherDisplay:10.37 W/m2 BKN
12:24 25.9 °C 18.6 °C 1016.5 hPa Calm   1.6 km/h 64 % 0 mm WeatherDisplay:10.37 W/m2 BKN
12:29 26.1 °C 19.2 °C 1016.1 hPa Calm   6.4 km/h 66 % 0 mm WeatherDisplay:10.37 W/m2 BKN
12:39 26.2 °C 19.1 °C 1016.1 hPa Calm   1.6 km/h 65 % 0 mm WeatherDisplay:10.37 W/m2 BKN
12:44 26.2 °C 19.1 °C 1016.1 hPa Calm     65 % 0 mm WeatherDisplay:10.37 W/m2 BKN
12:49 26.3 °C 18.9 °C 1016.1 hPa Calm   4.8 km/h 64 % 0 mm WeatherDisplay:10.37 W/m2 BKN
12:54 26.3 °C 19.4 °C 1016.1 hPa Calm   4.8 km/h 66 % 0 mm WeatherDisplay:10.37 W/m2 BKN
12:59 26.4 °C 19.5 °C 1016.1 hPa Calm     66 % 0 mm WeatherDisplay:10.37 W/m2 BKN
13:04 26.4 °C 19.8 °C 1015.8 hPa Calm     67 % 0 mm WeatherDisplay:10.37 W/m2 BKN
13:09 26.5 °C 19.6 °C 1015.8 hPa Calm   3.2 km/h 66 % 0 mm WeatherDisplay:10.37 W/m2 BKN
13:19 26.7 °C 19.8 °C 1015.8 hPa Calm   1.6 km/h 66 % 0 mm WeatherDisplay:10.37 W/m2 BKN
13:24 26.8 °C 19.7 °C 1015.8 hPa Calm   4.8 km/h 65 % 0 mm WeatherDisplay:10.37 W/m2 BKN
13:29 26.9 °C 19.8 °C 1015.5 hPa Calm   1.6 km/h 65 % 0 mm WeatherDisplay:10.37 W/m2 BKN
13:34 27 °C 19.9 °C 1015.5 hPa Calm   4.8 km/h 65 % 0 mm WeatherDisplay:10.37 W/m2 BKN
13:39 27.1 °C 19.5 °C 1015.5 hPa West 1.6 km/h 12.9 km/h 63 % 0 mm WeatherDisplay:10.37 W/m2 BKN
13:49 27.4 °C 19.9 °C 1015.5 hPa Calm     64 % 0 mm WeatherDisplay:10.37 W/m2 BKN
13:54 27.4 °C 19.8 °C 1015.5 hPa Calm   9.7 km/h 63 % 0 mm WeatherDisplay:10.37 W/m2 BKN
13:59 27.6 °C 20.1 °C 1015.5 hPa Calm   4.8 km/h 64 % 0 mm WeatherDisplay:10.37 W/m2 BKN
14:04 27.6 °C 20.2 °C 1015.5 hPa WNW 1.6 km/h 9.7 km/h 64 % 0 mm WeatherDisplay:10.37 W/m2 BKN
14:09 27.7 °C 20.3 °C 1015.5 hPa WNW 1.6 km/h 11.3 km/h 64 % 0 mm WeatherDisplay:10.37 W/m2 BKN
14:14 27.8 °C 20.1 °C 1015.5 hPa Calm   4.8 km/h 63 % 0 mm WeatherDisplay:10.37 W/m2 BKN
14:19 27.9 °C 19.9 °C 1015.1 hPa West 1.6 km/h 12.9 km/h 62 % 0 mm WeatherDisplay:10.37 W/m2 BKN
14:24 28 °C 20.3 °C 1015.1 hPa West 1.6 km/h 12.9 km/h 63 % 0 mm WeatherDisplay:10.37 W/m2 BKN
14:29 28.1 °C 20.4 °C 1015.1 hPa Calm   8 km/h 63 % 0 mm WeatherDisplay:10.37 W/m2 BKN
14:34 28.2 °C 20.5 °C 1015.1 hPa Calm   9.7 km/h 63 % 0 mm WeatherDisplay:10.37 W/m2 BKN
14:39 28.4 °C 20.4 °C 1015.1 hPa NNW 1.6 km/h 12.9 km/h 62 % 0 mm WeatherDisplay:10.37 W/m2 BKN
14:44 28.6 °C 20.8 °C 1014.8 hPa Calm   8 km/h 63 % 0 mm WeatherDisplay:10.37 W/m2 BKN
14:49 28.7 °C 20.7 °C 1014.8 hPa WNW 1.6 km/h 9.7 km/h 62 % 0 mm WeatherDisplay:10.37 W/m2 BKN
14:54 28.8 °C 20.6 °C 1014.8 hPa WNW 1.6 km/h 8 km/h 61 % 0 mm WeatherDisplay:10.37 W/m2 BKN
14:59 29 °C 20.7 °C 1014.8 hPa WNW 1.6 km/h 9.7 km/h 61 % 0 mm WeatherDisplay:10.37 W/m2 BKN
15:04 29.2 °C 20.8 °C 1014.8 hPa Calm   9.7 km/h 61 % 0 mm WeatherDisplay:10.37 W/m2 BKN
15:14 29.4 °C 20.8 °C 1014.8 hPa WNW 1.6 km/h 6.4 km/h 60 % 0 mm WeatherDisplay:10.37 W/m2 BKN
15:19 29.4 °C 20.6 °C 1014.8 hPa Calm   4.8 km/h 59 % 0 mm WeatherDisplay:10.37 W/m2 BKN
15:29 29.6 °C 20.7 °C 1014.4 hPa West 1.6 km/h 6.4 km/h 59 % 0 mm WeatherDisplay:10.37 W/m2 BKN
15:34 29.6 °C 20.7 °C 1014.4 hPa Calm   4.8 km/h 59 % 0 mm WeatherDisplay:10.37 W/m2 BKN
15:39 29.6 °C 20.4 °C 1014.4 hPa WNW 1.6 km/h 11.3 km/h 58 % 0 mm WeatherDisplay:10.37 W/m2 BKN
15:44 29.6 °C 20.4 °C 1014.4 hPa Calm   11.3 km/h 58 % 0 mm WeatherDisplay:10.37 W/m2 BKN
15:49 29.6 °C 20.7 °C 1014.4 hPa Calm   3.2 km/h 59 % 0 mm WeatherDisplay:10.37 W/m2 BKN
15:59 29.4 °C 20.6 °C 1014.4 hPa Calm   4.8 km/h 59 % 0 mm WeatherDisplay:10.37 W/m2 BKN
16:04 29.4 °C 20.9 °C 1014.1 hPa WNW 1.6 km/h 19.3 km/h 60 % 0 mm WeatherDisplay:10.37 W/m2 BKN
Juneau County Weather
Compliments of Weather Underground - 2.25 mb